User: anonymous   Login
Location: Unspecified
(0.0000°N, 0.0000°E)
Time: 04:55:54
(UTC+00:00)
Language:

Diapason D-1A - Orbit

View from above orbital plane
View from above orbital plane
View from above satellite
View from above satellite

Ground track
Ground track

The orbit data is extracted from the following two-line orbital elements,

1  2016U 66013A   18267.53893080 +.00000326 +00000-0 +87601-4 0  9992
2  2016 034.0998 338.4402 1187389 246.3224 100.8493 12.59682316383415
Epoch (UTC): 24 September 2018 12:56:03
Eccentricity: 0.1187389
inclination: 34.0998°
perigee height: 498 km
apogee height: 2350 km
right ascension of ascending node: 338.4402°
argument of perigee: 246.3224°
revolutions per day: 12.59682316
mean anomaly at epoch: 100.8493°
orbit number at epoch: 38341

The dashed part of the orbit path shows where the satellite is in the earth's shadow,  

DLR